AB2HM Weather Reports


time (UTC)temp
C
wind
direction
speed
KPH
gust
KPH
rain 1hr
cm
rain 24hr
cm
rain mn
cm
humidity
%
barometer
mb
20260505034539 17 156 0.0 3.2 0.00 0.00 0.00 62 1011.8
20260505031538 17 195 0.0 6.4 0.00 0.00 0.00 61 1011.7
20260505024522 18 358 0.0 4.8 0.00 0.00 0.00 58 1012.1
20260505021514 18 358 0.0 0.0 0.00 0.00 0.00 52 1012.2
20260505014509 18 358 0.0 0.0 0.00 0.00 0.00 47 1012.1
20260505011454 19 358 0.0 0.0 0.00 0.00 0.00 46 1011.8
20260505004452 20 358 0.0 1.6 0.00 0.00 0.00 44 1011.6
20260505001448 20 26 0.0 0.0 0.00 0.00 0.00 41 1011.3
20260504231431 22 26 0.0 3.2 0.00 0.00 0.00 35 1011.1
20260504224408 23 180 0.0 12.9 0.00 0.00 0.00 32 1011.0
20260504221401 23 60 0.0 6.4 0.00 0.00 0.00 30 1011.1
20260504214347 23 78 0.0 17.7 0.00 0.00 0.00 30 1011.2
20260504211347 24 161 0.0 9.7 0.00 0.00 0.00 30 1011.1
20260504204335 24 180 0.0 12.9 0.00 0.00 0.00 29 1011.2
20260504201330 23 139 0.0 16.1 0.00 0.00 0.00 28 1011.3
20260504194321 24 171 1.6 22.5 0.00 0.00 0.00 28 1011.6
20260504191313 24 358 0.0 9.7 0.00 0.00 0.00 29 1011.9
20260504184307 22 40 0.0 14.5 0.00 0.00 0.00 29 1012.3
20260504181301 23 146 0.0 12.9 0.00 0.00 0.00 30 1012.8
20260504174300 22 14 0.0 8.0 0.00 0.00 0.00 30 1013.2
20260504171255 22 57 0.0 14.5 0.00 0.00 0.00 30 1013.6
20260504141155 17 191 0.0 4.8 0.00 0.00 0.00 50 1015.2
20260504081113 10 130 0.0 0.0 0.00 0.00 0.00 68 1016.2
20260504043938 10 130 0.0 0.0 0.00 0.00 0.00 60 1015.8
20260504040926 10 130 0.0 0.0 0.00 0.00 0.00 59 1015.5